Regional Weather Roundup
Issued by NWS Sioux Falls, SD

Home | Current Version | Previous Version | Graphics & Text | Print | Product List | Glossary Off
Versions: 1 2 3 4 5 6 7 8 9 10 11 12 13 14 15 16 17 18 19 20 21 22 23 24 25 26 27 28 29 30 31 32 33 34 35 36 37 38 39 40 41 42 43 44 45 46 47 48 49 50

000
ASUS43 KFSD 210410
RWRFSD

WEATHER ROUNDUP FOR SE SOUTH DAKOTA/SW MINNESOTA/NW IOWA
NATIONAL WEATHER SERVICE SIOUX FALLS SD
1100 PM CDT MON OCT 20 2014

NOTE: "FAIR" INDICATES FEW OR NO CLOUDS BELOW 12,000 FEET WITH NO
SIGNIFICANT WEATHER AND OR OBSTRUCTIONS TO VISIBILITY.


SDZ038>040-050-052>070-210500-
SOUTHEAST SOUTH DAKOTA

CITY           SKY/WX    TMP DP  RH WIND       PRES   REMARKS
CHAMBERLAIN    CLEAR     54  34  47 SE10      29.98F
HURON          CLEAR     50  34  54 SE8       30.01F
MADISON        FAIR      45  36  70 E3        30.07R
MITCHELL       CLEAR     48  36  63 SE7       30.03S
SIOUX FALLS    CLEAR     43  38  82 CALM      30.06R
WINNER         FAIR      63  41  44 S18       29.96F
YANKTON        CLEAR     46  36  66 CALM      30.05S
$$

MNZ071-072-080-081-089-090-097-098-210500-
SOUTHWEST MINNESOTA

CITY           SKY/WX    TMP DP  RH WIND       PRES   REMARKS
FAIRMONT       CLEAR     45  32  61 N3        30.06R
JACKSON        CLEAR     43  36  75 CALM      30.07R
LUVERNE        CLEAR     43  34  70 CALM      30.08R
MARSHALL       CLEAR     39  30  70 W5        30.06R
MONTEVIDEO     CLEAR     45  36  70 CALM      30.07R
PIPESTONE      CLEAR     48  36  61 E3        30.07R
REDWOOD FALLS  CLEAR     52  39  61 E3        30.06R
TRACY          CLEAR     46  37  72 W3        30.07R
WINDOM         CLEAR     45  36  70 CALM      30.07R
WORTHINGTON    CLEAR     39  34  81 NW3       30.08S
$$

IAZ001>003-012>014-020>022-031-032-NEZ013-014-SDZ071-210500-
NORTHWEST IOWA

CITY           SKY/WX    TMP DP  RH WIND       PRES   REMARKS
CHEROKEE       CLEAR     42  40  91 CALM      30.08R
DENISON        CLEAR     43  41  93 CALM      30.06R
ESTHERVILLE    CLEAR     40  34  79 NW5       30.06R
LE MARS        CLEAR     41  39  93 CALM      30.07S
ORANGE CITY    CLEAR     55  37  50 CALM      30.07R
SHELDON        CLEAR     39  36  87 CALM      30.06S
SIOUX CITY     CLEAR     41  40  96 CALM      30.07R
SPENCER        CLEAR     40  35  83 W3        30.07R
STORM LAKE     CLEAR     52  37  58 N7        30.08R
$$

ABBREVIATIONS USED IN REMARKS
   TC - TEMPERATURE IN CELSIUS
  WCI - WIND CHILL INDEX
   HX - HEAT INDEX
  VSB - VISIBILITY




USA.gov is the U.S. government's official web portal to all federal, state and local government web resources and services.